Regional Weather Roundup
Issued by NWS

Home | Current Version | Previous Version | Text Only | Print | Product List | Glossary On
Versions: 1 2 3 4 5 6 7 8 9 10 11 12 13 14 15 16 17 18 19 20 21 22 23 24 25 26 27 28 29 30 31 32 33 34 35 36 37 38 39 40 41 42 43 44 45 46 47 48 49 50
000
ASCA42 TJSJ 011610
RWRPR
PUERTO RICO/U.S. VIRGIN ISLANDS HOURLY WEATHER ROUNDUP
NATIONAL WEATHER SERVICE SAN JUAN PR
1200 PM AST TUE SEP 01 2015

PRZ001-004-011700-
PUERTO RICO

CITY           SKY/WX    TMP DP  RH WIND       PRES   REMARKS
SAN JUAN LMM   MOSUNNY   90  75  62 NE16      30.03F HX 100
MAYAGUEZ       PTSUNNY   90  75  62 E10       30.04  HX 100
AGUADILLA      PTSUNNY   86  77  74 NE15      30.05F HX  97
$$

PRZ006-007-011700-
U.S. VIRGIN ISLANDS

CITY           SKY/WX    TMP DP  RH WIND       PRES   REMARKS
CHARLOTTE AMA  SUNNY     90  79  70 SE13      30.03F HX 105
CHRISTIANSTED  MOSUNNY   88  77  70 E13       30.04F HX 100
$$

HOURLY WEATHER ROUNDUP FOR THE NEWS MEDIA

CITY           SKY/WX    TMP DP  RH WIND       PRES   REMARKS
ORLANDO        MOSUNNY   87  77  72 S9        30.10R HX  99
NEW YORK       MOSUNNY   86  62  44 N3        30.06F
NEWARK         MOSUNNY   85  63  47 VRB3      30.05F
CHICAGO        MOSUNNY   82  73  74 SW7       30.05S
HARTFORD       MOSUNNY   80  60  50 E5        30.04S
BOSTON         MOSUNNY   77  62  59 SE12      30.06S
DALLAS         MOSUNNY   87  68  52 SW7       30.05S HX  90
PHILADELPHIA   SUNNY     89  65  44 E6        30.05F HX  91
LOS ANGELES    CLOUDY    72  59  63 E7        29.93S
WASHINGTON DC  MOSUNNY   88  67  49 N9        30.09F HX  91


USA.gov is the U.S. government's official web portal to all federal, state and local government web resources and services.